DW5735 Weather Reports


Display with metric or nautical units.
time (UTC)temp
F
wind
direction
speed
MPH
gust
MPH
rain 1hr
in
rain 24hr
in
rain mn
in
humidity
%
barometer
mb
20260508035847 67 107 0.0 0.0 0.00 0.00 0.00 40 1010.6
20260508035317 68 64 0.0 0.0 0.00 0.00 0.00 41 1010.5
20260508034502 67 84 0.0 0.0 0.00 0.00 0.00 47 1009.6
20260508034324 67 84 0.0 0.0 0.00 0.00 0.00 50 1010.5
20260508033843 67 114 0.0 0.0 0.00 0.00 0.00 54 1010.5
20260508033341 69 253 0.0 0.0 0.00 0.00 0.00 52 1010.3
20260508033111 69 228 0.0 0.0 0.00 0.00 0.00 50 1009.4
20260508032828 70 228 0.0 0.0 0.00 0.00 0.00 47 1010.4
20260508032320 71 53 0.0 1.0 0.00 0.00 0.00 36 1010.3
20260508031828 71 51 0.0 1.0 0.00 0.00 0.00 36 1010.3
20260508031556 70 86 0.0 0.0 0.00 0.00 0.00 37 1009.3
20260508031331 71 91 0.0 1.0 0.00 0.00 0.00 37 1010.3
20260508030843 71 75 0.0 2.0 0.00 0.00 0.00 38 1010.5
20260508030331 72 31 1.0 2.0 0.00 0.00 0.00 37 1010.4
20260508030000 72 19 0.0 1.0 0.00 0.00 0.00 37 1009.3
20260508025824 73 56 0.0 1.0 0.00 0.00 0.00 34 1010.3
20260508025348 72 101 0.0 0.0 0.00 0.00 0.00 35 1010.4
20260508024847 73 56 0.0 0.0 0.00 0.00 0.00 39 1010.3
20260508024510 73 56 0.0 0.0 0.00 0.00 0.00 36 1009.3
20260508024326 74 56 0.0 1.0 0.00 0.00 0.00 34 1010.3
20260508023832 75 94 0.0 1.0 0.00 0.00 0.00 33 1010.3
20260508023330 75 93 0.0 1.0 0.00 0.00 0.00 34 1010.3
20260508023107 75 89 0.0 1.0 0.00 0.00 0.00 35 1009.3
20260508022821 76 97 0.0 1.0 0.00 0.00 0.00 34 1010.3
20260508022331 76 96 0.0 1.0 0.00 0.00 0.00 36 1010.3
20260508021822 77 120 0.0 1.0 0.00 0.00 0.00 34 1010.2
20260508021654 76 121 0.0 1.0 0.00 0.00 0.00 34 1009.2
20260508021401 76 219 0.0 0.0 0.00 0.00 0.00 34 1010.3
20260508020836 75 219 0.0 0.0 0.00 0.00 0.00 38 1010.5
20260508020345 73 219 0.0 1.0 0.00 0.00 0.00 34 1010.3
20260508020114 72 219 0.0 1.0 0.00 0.00 0.00 36 1009.3
20260508015841 72 219 0.0 1.0 0.00 0.00 0.00 45 1010.4
20260508015327 72 252 0.0 0.0 0.00 0.00 0.00 51 1010.3
20260508014835 71 225 0.0 1.0 0.00 0.00 0.00 54 1010.3
20260508014608 71 223 0.0 2.0 0.00 0.00 0.00 54 1009.3
20260508014318 72 246 0.0 2.0 0.00 0.00 0.00 55 1010.3
20260508013832 75 290 0.0 1.0 0.00 0.00 0.00 35 1010.3
20260508013331 75 223 0.0 1.0 0.00 0.00 0.00 36 1010.4
20260508012904 75 239 0.0 1.0 0.00 0.00 0.00 38 1010.4
20260508012326 75 257 0.0 2.0 0.00 0.00 0.00 33 1010.5
20260508011821 73 222 0.0 2.0 0.00 0.00 0.00 37 1010.5
20260508011618 73 219 0.0 2.0 0.00 0.00 0.00 38 1009.4
20260508011329 73 226 2.0 2.0 0.00 0.00 0.00 39 1010.6
20260508010839 72 205 0.0 2.0 0.00 0.00 0.00 45 1010.6
20260508010324 71 236 0.0 1.0 0.00 0.00 0.00 49 1010.6
20260508010108 70 239 0.0 1.0 0.00 0.00 0.00 50 1009.6
20260508005830 72 253 0.0 2.0 0.00 0.00 0.00 46 1010.6
20260508005343 73 253 1.0 2.0 0.00 0.00 0.00 44 1010.6
20260508004818 75 232 1.0 2.0 0.00 0.00 0.00 40 1010.6
20260508004605 75 224 1.0 2.0 0.00 0.00 0.00 30 1009.6
20260508004351 76 239 0.0 1.0 0.00 0.00 0.00 30 1010.7
20260508003828 75 229 1.0 2.0 0.00 0.00 0.00 33 1010.7
20260508003318 75 235 1.0 2.0 0.00 0.00 0.00 35 1010.8
20260508003113 74 231 1.0 2.0 0.00 0.00 0.00 35 1009.8
20260508002822 75 232 2.0 3.0 0.00 0.00 0.00 34 1010.8
20260508002355 75 236 1.0 4.0 0.00 0.00 0.00 34 1010.8
20260508001843 75 239 3.0 4.0 0.00 0.00 0.00 33 1010.8
20260508001617 75 239 3.0 4.0 0.00 0.00 0.00 30 1009.8
20260508001327 76 231 1.0 3.0 0.00 0.00 0.00 32 1010.8
20260508000833 75 236 2.0 4.0 0.00 0.00 0.00 33 1010.8
20260508000323 74 236 2.0 4.0 0.00 0.00 0.00 38 1010.8
20260507235833 74 232 2.0 4.0 0.00 0.00 0.00 38 1010.9
20260507235335 74 224 4.0 4.0 0.00 0.00 0.00 37 1010.9
20260507234830 74 229 2.0 4.0 0.00 0.00 0.00 35 1010.9
20260507234603 73 219 2.0 4.0 0.00 0.00 0.00 34 1010.0
20260507234341 73 229 2.0 4.0 0.00 0.00 0.00 34 1010.9
20260507233831 72 235 2.0 3.0 0.00 0.00 0.00 36 1011.0
20260507233329 72 208 2.0 4.0 0.00 0.00 0.00 40 1011.0
20260507233001 71 229 1.0 6.0 0.00 0.00 0.00 47 1010.1
20260507232822 72 226 1.0 6.0 0.00 0.00 0.00 43 1011.1
20260507232331 71 217 5.0 6.0 0.00 0.00 0.00 41 1011.2
20260507231836 72 242 4.0 5.0 0.00 0.00 0.00 39 1011.1
20260507231326 73 222 4.0 5.0 0.00 0.00 0.00 40 1011.2
20260507230828 73 227 3.0 4.0 0.00 0.00 0.00 36 1011.2
20260507230106 74 233 2.0 4.0 0.00 0.00 0.00 29 1010.5
20260507225820 75 285 0.0 1.0 0.00 0.00 0.00 29 1011.4
20260507225327 74 260 0.0 0.0 0.00 0.00 0.00 29 1011.4
20260507224820 73 252 0.0 0.0 0.00 0.00 0.00 32 1011.5
20260507224608 71 232 0.0 1.0 0.00 0.00 0.00 32 1010.5
20260507224331 71 260 0.0 1.0 0.00 0.00 0.00 34 1011.6
20260507223821 70 240 0.0 1.0 0.00 0.00 0.00 38 1011.7
20260507223328 69 235 0.0 3.0 0.00 0.00 0.00 42 1011.7
20260507223014 68 236 0.0 3.0 0.00 0.00 0.00 55 1010.8
20260507222834 69 260 1.0 3.0 0.00 0.00 0.00 53 1011.8
20260507222325 70 255 0.0 2.0 0.00 0.00 0.00 48 1011.8
20260507221825 70 238 2.0 2.0 0.00 0.00 0.00 42 1011.9
20260507221604 70 235 1.0 2.0 0.00 0.00 0.00 42 1010.9
20260507221327 70 221 2.0 2.0 0.00 0.00 0.00 39 1012.0
20260507220832 70 239 1.0 4.0 0.00 0.00 0.00 36 1012.1
20260507220340 69 238 2.0 5.0 0.00 0.00 0.00 42 1012.2
20260507220105 69 245 2.0 5.0 0.00 0.00 0.00 44 1011.2
20260507215820 69 235 4.0 5.0 0.00 0.00 0.00 43 1012.3
20260507214821 70 239 1.0 4.0 0.00 0.00 0.00 40 1012.4
20260507214613 69 235 1.0 5.0 0.00 0.00 0.00 37 1011.3
20260507214325 68 225 2.0 6.0 0.00 0.00 0.00 39 1012.4
20260507213851 68 250 5.0 6.0 0.00 0.00 0.00 51 1012.5
20260507213357 69 229 2.0 4.0 0.00 0.00 0.00 52 1012.6
20260507213110 68 236 1.0 3.0 0.00 0.00 0.00 50 1011.6
20260507212847 69 231 1.0 4.0 0.00 0.00 0.00 50 1012.6
20260507212335 68 216 2.0 4.0 0.00 0.00 0.00 50 1012.7
20260507211823 67 239 4.0 4.0 0.00 0.00 0.00 46 1012.8
20260507211609 66 245 1.0 4.0 0.00 0.00 0.00 53 1011.8
20260507211329 67 239 2.0 5.0 0.00 0.00 0.00 55 1012.8
20260507210836 68 231 3.0 5.0 0.00 0.00 0.00 51 1012.9
20260507210335 68 252 4.0 5.0 0.00 0.00 0.00 45 1013.0
20260507210104 67 238 4.0 5.0 0.00 0.00 0.00 45 1012.1
20260507205823 67 222 3.0 5.0 0.00 0.00 0.00 52 1013.0
20260507205326 68 226 4.0 6.0 0.00 0.00 0.00 54 1013.1
20260507204851 68 236 3.0 5.0 0.00 0.00 0.00 54 1013.2
20260507204613 67 229 1.0 4.0 0.00 0.00 0.00 51 1012.2
20260507204334 67 239 3.0 4.0 0.00 0.00 0.00 44 1013.2
20260507203825 67 226 0.0 4.0 0.00 0.00 0.00 49 1013.3
20260507203335 65 219 2.0 6.0 0.00 0.00 0.00 57 1013.4
20260507203013 65 242 4.0 6.0 0.00 0.00 0.00 62 1012.6
20260507202830 66 276 4.0 6.0 0.00 0.00 0.00 57 1013.5
20260507202329 68 245 5.0 7.0 0.00 0.00 0.00 50 1013.5
20260507201826 70 206 2.0 7.0 0.00 0.00 0.00 35 1013.6
20260507201511 67 151 0.0 4.0 0.00 0.00 0.00 37 1012.7
20260507201336 67 110 0.0 4.0 0.00 0.00 0.00 43 1013.7
20260507200331 67 235 3.0 5.0 0.00 0.00 0.00 49 1013.8
20260507200056 66 224 3.0 5.0 0.00 0.00 0.00 47 1012.8
20260507195834 67 198 2.0 5.0 0.00 0.00 0.00 46 1013.8
20260507195341 66 251 0.0 3.0 0.00 0.00 0.00 47 1013.9
20260507194842 64 242 1.0 4.0 0.00 0.00 0.00 53 1013.8
20260507194601 63 232 1.0 5.0 0.00 0.00 0.00 62 1012.9
20260507194318 64 243 3.0 5.0 0.00 0.00 0.00 58 1013.9
20260507193828 65 242 4.0 6.0 0.00 0.00 0.00 57 1013.9
20260507193106 65 238 5.0 7.0 0.00 0.00 0.00 57 1013.1
20260507192830 66 236 3.0 5.0 0.00 0.00 0.00 50 1014.0
20260507192318 65 201 1.0 3.0 0.00 0.00 0.00 54 1014.1
20260507191900 65 239 2.0 4.0 0.00 0.00 0.00 46 1014.1
20260507191531 64 228 1.0 4.0 0.00 0.00 0.00 49 1013.3
20260507191355 65 222 3.0 4.0 0.00 0.00 0.00 50 1014.3
20260507190840 64 216 3.0 4.0 0.00 0.00 0.00 59 1014.3
20260507190326 65 245 2.0 4.0 0.00 0.00 0.00 62 1014.4
20260507190105 64 235 0.0 3.0 0.00 0.00 0.00 56 1013.4
20260507185859 64 226 0.0 1.0 0.00 0.00 0.00 54 1014.4
20260507185330 64 249 0.0 1.0 0.00 0.00 0.00 57 1014.5
20260507184857 65 287 0.0 1.0 0.00 0.00 0.00 47 1014.5
20260507184603 64 241 0.0 1.0 0.00 0.00 0.00 47 1013.6
20260507184323 64 233 0.0 1.0 0.00 0.00 0.00 51 1014.6
20260507183832 64 248 0.0 1.0 0.00 0.00 0.00 49 1014.6
20260507183353 63 231 0.0 1.0 0.00 0.00 0.00 53 1014.7
20260507183100 62 240 0.0 1.0 0.00 0.00 0.00 53 1013.9
20260507182830 62 249 1.0 1.0 0.00 0.00 0.00 54 1014.8
20260507182321 62 231 0.0 1.0 0.00 0.00 0.00 56 1014.8
20260507181852 61 207 0.0 1.0 0.00 0.00 0.00 58 1014.8
20260507181600 60 211 0.0 1.0 0.00 0.00 0.00 60 1014.0
20260507181336 61 236 0.0 1.0 0.00 0.00 0.00 61 1014.9
20260507180844 60 249 0.0 1.0 0.00 0.00 0.00 63 1014.9
20260507180342 60 250 0.0 1.0 0.00 0.00 0.00 65 1015.0
20260507180010 59 232 0.0 0.0 0.00 0.00 0.00 64 1014.1
20260507175828 60 242 0.0 1.0 0.00 0.00 0.00 65 1015.0
20260507175321 59 248 0.0 1.0 0.00 0.00 0.00 68 1015.0
20260507174830 60 236 0.0 1.0 0.00 0.00 0.00 71 1015.0
20260507174608 59 242 0.0 2.0 0.00 0.00 0.00 68 1014.1
20260507174324 59 239 0.0 3.0 0.00 0.00 0.00 69 1014.9
20260507173826 59 249 2.0 3.0 0.00 0.00 0.00 72 1015.0
20260507173354 60 239 3.0 3.0 0.00 0.00 0.00 68 1015.0
20260507173100 59 239 0.0 1.0 0.00 0.00 0.00 66 1014.2
20260507172843 59 242 0.0 1.0 0.00 0.00 0.00 68 1015.1
20260507172325 59 217 0.0 2.0 0.00 0.00 0.00 70 1015.2
20260507171849 59 236 1.0 4.0 0.00 0.00 0.00 70 1015.2
20260507171608 58 231 1.0 4.0 0.00 0.00 0.00 72 1014.3
20260507171320 59 216 0.0 4.0 0.00 0.00 0.00 74 1015.2
20260507170838 59 242 3.0 5.0 0.00 0.00 0.00 72 1015.1
20260507170320 59 256 4.0 5.0 0.00 0.00 0.00 71 1015.2
20260507170101 59 235 4.0 5.0 0.00 0.00 0.00 71 1014.3
20260507165833 59 224 4.0 6.0 0.00 0.00 0.00 69 1015.2
20260507165321 60 231 4.0 6.0 0.00 0.00 0.00 66 1015.2
20260507164827 60 231 5.0 6.0 0.00 0.00 0.00 65 1015.3
20260507164603 59 225 4.0 6.0 0.00 0.00 0.00 65 1014.4
20260507164318 60 222 5.0 6.0 0.00 0.00 0.00 64 1015.3
20260507163854 60 226 4.0 6.0 0.00 0.00 0.00 64 1015.3
20260507163332 59 226 3.0 5.0 0.00 0.00 0.00 65 1015.4
20260507163106 59 216 1.0 4.0 0.00 0.00 0.00 66 1014.5
20260507162822 59 250 2.0 4.0 0.00 0.00 0.00 67 1015.5
20260507162339 59 218 2.0 4.0 0.00 0.00 0.00 67 1015.5
20260507161826 59 243 1.0 2.0 0.00 0.00 0.00 68 1015.5
20260507161553 59 248 0.0 3.0 0.00 0.00 0.00 62 1014.7
20260507161317 59 238 0.0 3.0 0.00 0.00 0.00 68 1015.5
20260507160830 58 236 1.0 4.0 0.00 0.00 0.00 70 1015.5
20260507160325 58 228 0.0 2.0 0.00 0.00 0.00 71 1015.6
20260507160009 58 231 0.0 2.0 0.00 0.00 0.00 69 1014.8
20260507155831 58 264 0.0 0.0 0.00 0.00 0.00 69 1015.6
20260507155354 58 238 0.0 0.0 0.00 0.00 0.00 63 1015.6
20260507154835 58 240 0.0 0.0 0.00 0.00 0.00 69 1015.7
20260507154507 58 245 0.0 1.0 0.00 0.00 0.00 68 1014.8
20260507154328 58 238 0.0 1.0 0.00 0.00 0.00 67 1015.8
20260507153823 58 224 0.0 1.0 0.00 0.00 0.00 69 1015.9
20260507153334 58 248 0.0 3.0 0.00 0.00 0.00 70 1015.9
20260507152830 58 218 0.0 3.0 0.00 0.00 0.00 68 1015.9
20260507152336 58 246 0.0 3.0 0.00 0.00 0.00 66 1015.9
20260507151852 59 225 1.0 3.0 0.00 0.00 0.00 64 1016.0
20260507151600 58 245 0.0 1.0 0.00 0.00 0.00 65 1015.1
20260507151335 59 231 0.0 1.0 0.00 0.00 0.00 65 1016.0
20260507150844 58 212 0.0 3.0 0.00 0.00 0.00 65 1016.1
20260507150329 58 242 1.0 3.0 0.00 0.00 0.00 63 1016.0
20260507150011 58 242 0.0 3.0 0.00 0.00 0.00 63 1015.1
20260507145828 58 221 0.0 3.0 0.00 0.00 0.00 63 1016.0
20260507145329 58 250 0.0 0.0 0.00 0.00 0.00 64 1016.0
20260507144855 58 214 0.0 0.0 0.00 0.00 0.00 67 1016.0
20260507144511 57 224 0.0 0.0 0.00 0.00 0.00 68 1015.0
20260507144331 57 232 0.0 0.0 0.00 0.00 0.00 69 1015.9
20260507143845 57 243 0.0 0.0 0.00 0.00 0.00 69 1015.9
20260507143330 57 239 0.0 3.0 0.00 0.00 0.00 71 1015.8
20260507143103 57 224 0.0 3.0 0.00 0.00 0.00 70 1015.0
20260507142838 57 243 1.0 3.0 0.00 0.00 0.00 71 1015.8
20260507142322 58 255 0.0 4.0 0.00 0.00 0.00 67 1015.8
20260507141823 58 255 2.0 4.0 0.00 0.00 0.00 66 1015.8
20260507141509 58 252 0.0 1.0 0.00 0.00 0.00 60 1014.8
20260507141329 58 245 0.0 1.0 0.00 0.00 0.00 60 1015.7
20260507140842 59 231 0.0 2.0 0.00 0.00 0.00 60 1015.7
20260507140347 59 235 0.0 3.0 0.00 0.00 0.00 59 1015.7
20260507140125 58 228 0.0 3.0 0.00 0.00 0.00 58 1014.7
20260507135857 59 222 0.0 3.0 0.00 0.00 0.00 58 1015.5
20260507135325 59 239 0.0 5.0 0.00 0.00 0.00 57 1015.5
20260507134835 58 207 1.0 4.0 0.00 0.00 0.00 59 1015.5
20260507134606 57 217 0.0 3.0 0.00 0.00 0.00 59 1014.6
20260507134322 57 210 0.0 1.0 0.00 0.00 0.00 64 1015.4
20260507133852 57 216 0.0 1.0 0.00 0.00 0.00 69 1015.3
20260507133334 56 184 0.0 0.0 0.00 0.00 0.00 72 1015.3
20260507133018 55 191 0.0 0.0 0.00 0.00 0.00 73 1014.5
20260507132838 56 223 0.0 0.0 0.00 0.00 0.00 73 1015.3
20260507132318 55 225 0.0 0.0 0.00 0.00 0.00 70 1015.1
20260507131849 55 221 0.0 1.0 0.00 0.00 0.00 70 1015.2
20260507131351 54 249 0.0 1.0 0.00 0.00 0.00 71 1015.3
20260507130832 53 94 0.0 1.0 0.00 0.00 0.00 73 1015.4
20260507130335 53 43 0.0 0.0 0.00 0.00 0.00 75 1015.5
20260507130112 52 95 0.0 0.0 0.00 0.00 0.00 75 1014.6
20260507125842 53 94 0.0 0.0 0.00 0.00 0.00 76 1015.4
20260507125346 53 84 0.0 1.0 0.00 0.00 0.00 76 1015.5
20260507124817 54 46 0.0 1.0 0.00 0.00 0.00 73 1015.5
20260507124619 54 238 0.0 0.0 0.00 0.00 0.00 71 1014.7
20260507124326 55 172 0.0 0.0 0.00 0.00 0.00 70 1015.6
20260507123824 55 25 0.0 0.0 0.00 0.00 0.00 68 1015.4
20260507123348 56 186 0.0 0.0 0.00 0.00 0.00 67 1015.4
20260507123019 56 187 0.0 1.0 0.00 0.00 0.00 64 1014.5
20260507122841 56 187 0.0 3.0 0.00 0.00 0.00 64 1015.3
20260507122325 57 225 0.0 3.0 0.00 0.00 0.00 64 1015.4
20260507121838 57 224 0.0 5.0 0.00 0.00 0.00 62 1015.2
20260507121613 57 217 0.0 5.0 0.00 0.00 0.00 62 1014.2
20260507121324 57 238 0.0 5.0 0.00 0.00 0.00 62 1014.9
20260507120820 57 217 0.0 6.0 0.00 0.00 0.00 62 1014.8
20260507120345 57 155 0.0 7.0 0.00 0.00 0.00 63 1014.8
20260507120053 57 203 3.0 7.0 0.00 0.00 0.00 63 1014.0
20260507115830 57 251 2.0 7.0 0.00 0.00 0.00 62 1014.8
20260507115343 57 246 0.0 4.0 0.00 0.00 0.00 63 1014.7
20260507114828 57 134 0.0 9.0 0.00 0.00 0.00 62 1014.6
20260507114606 57 208 0.0 9.0 0.00 0.00 0.00 62 1013.7
20260507114321 57 222 3.0 9.0 0.00 0.00 0.00 62 1014.6
20260507113833 56 226 0.0 2.0 0.00 0.00 0.00 64 1014.6
20260507113321 56 42 0.0 0.0 0.00 0.00 0.00 65 1014.5
20260507113006 55 76 0.0 0.0 0.00 0.00 0.00 65 1013.6
20260507112830 56 50 0.0 0.0 0.00 0.00 0.00 65 1014.5
20260507112339 57 60 0.0 0.0 0.00 0.00 0.00 64 1014.4
20260507111835 57 115 0.0 5.0 0.00 0.00 0.00 65 1014.3
20260507111603 56 155 0.0 5.0 0.00 0.00 0.00 67 1013.5
20260507111319 57 254 1.0 5.0 0.00 0.00 0.00 66 1014.4
20260507110836 57 116 0.0 0.0 0.00 0.00 0.00 66 1014.3
20260507110339 57 218 0.0 0.0 0.00 0.00 0.00 65 1014.3
20260507105833 58 208 0.0 4.0 0.00 0.00 0.00 65 1014.3
20260507105334 58 211 0.0 6.0 0.00 0.00 0.00 63 1014.2
20260507104819 59 179 1.0 10.0 0.00 0.00 0.00 61 1014.3
20260507104611 58 158 0.0 12.0 0.00 0.00 0.00 61 1013.4
20260507104352 59 222 1.0 12.0 0.00 0.00 0.00 60 1014.3
20260507103837 59 232 8.0 13.0 0.00 0.00 0.00 61 1014.1
20260507103328 60 222 3.0 11.0 0.00 0.00 0.00 56 1013.9
20260507103055 59 231 4.0 12.0 0.00 0.00 0.00 57 1013.1
20260507102835 59 203 5.0 10.0 0.00 0.00 0.00 57 1014.0
20260507102327 58 153 1.0 6.0 0.00 0.00 0.00 61 1014.0
20260507101830 59 222 1.0 6.0 0.00 0.00 0.00 62 1014.0
20260507101532 58 167 1.0 8.0 0.00 0.00 0.00 62 1013.2
20260507101348 59 167 1.0 8.0 0.00 0.00 0.00 62 1014.0
20260507100823 59 226 0.0 8.0 0.00 0.00 0.00 60 1013.9
20260507100331 59 213 1.0 8.0 0.00 0.00 0.00 59 1013.7
20260507100107 59 211 2.0 8.0 0.00 0.00 0.00 59 1012.8
20260507095818 59 219 0.0 3.0 0.00 0.00 0.00 58 1013.6
20260507095355 60 236 0.0 6.0 0.00 0.00 0.00 58 1013.7
20260507094834 60 167 0.0 9.0 0.00 0.00 0.00 58 1013.6
20260507094556 59 163 2.0 9.0 0.00 0.00 0.00 58 1012.8
20260507094340 60 146 0.0 3.0 0.00 0.00 0.00 57 1013.7
20260507093846 60 208 0.0 1.0 0.00 0.00 0.00 56 1013.5
20260507093333 60 139 0.0 1.0 0.00 0.00 0.00 56 1013.4
20260507093106 59 228 0.0 1.0 0.00 0.00 0.00 56 1012.6
20260507092854 60 95 0.0 5.0 0.00 0.00 0.00 56 1013.3
20260507092344 60 108 0.0 9.0 0.00 0.00 0.00 56 1013.3
20260507091820 60 91 0.0 9.0 0.00 0.00 0.00 58 1013.2
20260507091501 61 252 3.0 10.0 0.00 0.00 0.00 58 1012.3
20260507091325 61 208 1.0 12.0 0.00 0.00 0.00 54 1013.1
20260507090835 61 163 1.0 12.0 0.00 0.00 0.00 54 1013.0
20260507090327 61 163 1.0 9.0 0.00 0.00 0.00 54 1012.9
20260507090103 61 165 2.0 9.0 0.00 0.00 0.00 54 1012.0
20260507085854 61 164 2.0 7.0 0.00 0.00 0.00 54 1012.9
20260507085337 61 185 1.0 6.0 0.00 0.00 0.00 54 1012.8
20260507084824 61 194 1.0 10.0 0.00 0.00 0.00 54 1012.7
20260507084358 62 225 2.0 10.0 0.00 0.00 0.00 54 1012.6
20260507083820 62 204 2.0 8.0 0.00 0.00 0.00 54 1012.7
20260507083338 62 208 2.0 7.0 0.00 0.00 0.00 54 1012.6
20260507083104 61 214 2.0 6.0 0.00 0.00 0.00 54 1011.7
20260507082819 61 210 2.0 6.0 0.00 0.00 0.00 55 1012.6
20260507082339 61 198 1.0 6.0 0.00 0.00 0.00 56 1012.5
20260507081850 62 201 3.0 11.0 0.00 0.00 0.00 57 1012.5
20260507081606 61 204 3.0 11.0 0.00 0.00 0.00 56 1011.5
20260507081346 62 218 7.0 11.0 0.00 0.00 0.00 55 1012.3
20260507080828 62 190 4.0 9.0 0.00 0.00 0.00 54 1012.2
20260507080329 62 103 0.0 5.0 0.00 0.00 0.00 56 1012.3
20260507080137 61 197 1.0 5.0 0.00 0.00 0.00 56 1011.4
20260507075828 62 219 1.0 5.0 0.00 0.00 0.00 55 1012.3
20260507075338 62 193 2.0 10.0 0.00 0.00 0.00 55 1012.2
20260507074850 62 207 4.0 11.0 0.00 0.00 0.00 57 1012.1
20260507074604 62 224 3.0 11.0 0.00 0.00 0.00 58 1011.2
20260507074332 63 211 5.0 11.0 0.00 0.00 0.00 55 1012.1
20260507073843 62 232 2.0 11.0 0.00 0.00 0.00 53 1012.0
20260507073318 61 248 1.0 8.0 0.00 0.00 0.00 56 1012.1
20260507073006 60 204 0.0 5.0 0.00 0.00 0.00 57 1011.2
20260507072826 60 221 1.0 7.0 0.00 0.00 0.00 59 1012.0
20260507072322 59 203 1.0 8.0 0.00 0.00 0.00 68 1011.9
20260507071838 60 255 4.0 8.0 0.00 0.00 0.00 68 1011.8
20260507071618 60 252 6.0 8.0 0.00 0.00 0.00 66 1010.8
20260507071337 61 246 1.0 5.0 0.00 0.00 0.00 57 1011.7
20260507070822 60 203 0.0 0.0 0.00 0.00 0.00 62 1011.7
20260507070349 60 242 0.0 0.0 0.00 0.00 0.00 68 1011.7
20260507070004 60 255 0.0 0.0 0.00 0.00 0.00 67 1010.8
20260507065832 61 283 0.0 0.0 0.00 0.00 0.00 64 1011.7
20260507065323 61 103 0.0 0.0 0.00 0.00 0.00 62 1011.6
20260507064832 62 222 0.0 0.0 0.00 0.00 0.00 60 1011.6
20260507064605 61 224 0.0 1.0 0.00 0.00 0.00 60 1010.8
20260507064349 62 221 0.0 3.0 0.00 0.00 0.00 59 1011.6
20260507063828 62 44 0.0 6.0 0.00 0.00 0.00 64 1011.5
20260507063323 61 32 1.0 6.0 0.00 0.00 0.00 65 1011.5
20260507062818 61 44 0.0 0.0 0.00 0.00 0.00 63 1011.4
20260507062319 61 43 0.0 0.0 0.00 0.00 0.00 63 1011.3
20260507061838 61 149 0.0 0.0 0.00 0.00 0.00 63 1011.3
20260507061639 61 106 0.0 0.0 0.00 0.00 0.00 65 1010.4
20260507061324 62 81 0.0 0.0 0.00 0.00 0.00 65 1011.3
20260507060818 61 91 0.0 0.0 0.00 0.00 0.00 68 1011.3
20260507060324 61 19 0.0 0.0 0.00 0.00 0.00 67 1011.1
20260507060124 61 105 0.0 0.0 0.00 0.00 0.00 66 1010.2
20260507055822 62 103 0.0 0.0 0.00 0.00 0.00 66 1011.0
20260507055325 62 118 0.0 0.0 0.00 0.00 0.00 66 1011.1
20260507054608 62 101 0.0 0.0 0.00 0.00 0.00 65 1010.1
20260507054334 63 102 0.0 0.0 0.00 0.00 0.00 65 1011.0
20260507053847 63 184 0.0 0.0 0.00 0.00 0.00 64 1010.9
20260507053321 63 207 0.0 0.0 0.00 0.00 0.00 65 1010.8
20260507053059 63 191 0.0 0.0 0.00 0.00 0.00 65 1009.8
20260507052843 63 191 0.0 0.0 0.00 0.00 0.00 65 1010.7
20260507052334 63 191 0.0 0.0 0.00 0.00 0.00 64 1010.8
20260507051828 64 196 0.0 1.0 0.00 0.00 0.00 64 1010.6
20260507051559 63 213 0.0 5.0 0.00 0.00 0.00 64 1009.8
20260507051335 64 207 0.0 5.0 0.00 0.00 0.00 63 1010.7
20260507050900 64 257 2.0 5.0 0.00 0.00 0.00 63 1010.6
20260507050322 65 217 0.0 1.0 0.00 0.00 0.00 62 1010.4
20260507050107 64 204 0.0 3.0 0.00 0.00 0.00 62 1009.4
20260507045325 65 330 1.0 6.0 0.00 0.00 0.00 61 1010.4
20260507044818 65 359 3.0 6.0 0.00 0.00 0.00 61 1010.5
20260507044623 65 37 3.0 6.0 0.00 0.00 0.00 61 1009.6
20260507044319 65 26 5.0 6.0 0.00 0.00 0.00 61 1010.5
20260507043824 66 42 3.0 6.0 0.00 0.00 0.00 60 1010.4
20260507043340 66 44 2.0 5.0 0.00 0.00 0.00 61 1010.4
20260507043108 65 26 1.0 7.0 0.00 0.00 0.00 60 1009.5
20260507042829 65 34 2.0 7.0 0.00 0.00 0.00 61 1010.5
20260507042320 65 31 6.0 7.0 0.00 0.00 0.00 62 1010.3
20260507041608 65 80 1.0 9.0 0.00 0.00 0.00 61 1009.5
20260507040829 66 31 6.0 11.0 0.00 0.00 0.00 61 1010.3
20260507040357 66 7 8.0 11.0 0.00 0.00 0.00 59 1010.2
20260507040104 66 359 5.0 8.0 0.00 0.00 0.00 59 1009.1